ISS (ZARYA) 1 25544U 98067A 26208.37844919 .00011554 00000+0 21591-3 0 9999 2 25544 51.6322 101.1989 0007008 342.7043 17.3706 15.49203967577984 POISK 1 36086U 09060A 26208.37844919 .00011554 00000+0 21591-3 0 9997 2 36086 51.6322 101.1989 0007008 342.7043 17.3706 15.49203967577639 CSS (TIANHE) 1 48274U 21035A 26205.70067244 .00011455 00000+0 15064-3 0 9995 2 48274 41.4690 94.2105 0001495 308.5106 51.5598 15.58352000299028 ISS (NAUKA) 1 49044U 21066A 26208.37844919 .00011554 00000+0 21591-3 0 9995 2 49044 51.6322 101.1989 0007008 342.7043 17.3706 15.49203967577671 FREGAT DEB 1 49271U 11037PF 26208.11060601 .00016256 00000+0 26920-1 0 9997 2 49271 51.6243 241.8262 0903966 9.5109 352.1659 12.43109824230019 CSS (WENTIAN) 1 53239U 22085A 26205.70067244 .00011455 00000+0 15064-3 0 9998 2 53239 41.4690 94.2105 0001495 308.5106 51.5598 15.58352000288236 CSS (MENGTIAN) 1 54216U 22143A 26205.70067244 .00011455 00000+0 15064-3 0 9999 2 54216 41.4690 94.2105 0001495 308.5106 51.5598 15.58352000298367 HRC MONOBLOCK CAMERA 1 66052U 98067XR 26207.99530950 .00107972 00000+0 55370-3 0 9994 2 66052 51.6198 73.7511 0001215 229.3599 130.7297 15.80438634 44282 SZ-21 MODULE 1 66515U 25246C 26208.58964729 .00051998 00000+0 27126-3 0 9992 2 66515 41.4727 55.0404 0009670 296.5688 63.4166 15.79946523 40128 DUPLEX 1 66906U 98067XS 26208.05114219 .00044217 00000+0 43649-3 0 9994 2 66906 51.6265 87.7340 0002174 1.2591 358.8409 15.65453024 36893 KNACKSAT-2 1 67683U 98067XZ 26208.27946536 .00058412 00000+0 61773-3 0 9996 2 67683 51.6284 92.2796 0007038 4.9977 355.1087 15.63565976 26546 CORAL 1 67684U 98067YA 26208.04584454 .01231714 91091-3 15390-2 0 9995 2 67684 51.6088 79.2644 0009437 263.3186 96.6753 16.07122788 26696 GXIBA-1 1 67685U 98067YB 26208.16721595 .00070270 00000+0 67462-3 0 9999 2 67685 51.6259 91.5161 0007669 2.0604 358.0422 15.65923613 26547 UITMSAT-2 1 67686U 98067YC 26208.07229562 .00111729 00000+0 85781-3 0 9996 2 67686 51.6246 89.3673 0003203 331.3101 28.7720 15.71208947 26564 LEOPARD 1 67687U 98067YD 26208.27537814 .00081057 00000+0 79658-3 0 9997 2 67687 51.6283 91.5153 0004389 334.1661 25.9115 15.65302824 26471 HMU-SAT2 1 67688U 98067YE 26208.04965213 .00086259 00000+0 74146-3 0 9997 2 67688 51.6264 90.7386 0003656 336.9238 23.1593 15.68594306 26466 CREW DRAGON 12 1 67796U 26031A 26208.37844919 .00011554 00000+0 21591-3 0 9996 2 67796 51.6322 101.1989 0007008 342.7043 17.3706 15.49203967577743 PROGRESS-MS 33 1 68319U 26058A 26208.37844919 .00011554 00000+0 21591-3 0 9997 2 68319 51.6322 101.1989 0007008 342.7043 17.3706 15.49203967577790 CYGNUS NG-24 1 68689U 26079A 26208.37844919 .00011554 00000+0 21591-3 0 9990 2 68689 51.6322 101.1989 0007008 342.7043 17.3706 15.49203967577868 PROGRESS-MS 34 1 68837U 26093A 26208.37844919 .00011554 00000+0 21591-3 0 9991 2 68837 51.6322 101.1989 0007008 342.7043 17.3706 15.49203967577908 TIANZHOU-10 1 69049U 26102A 26205.70067244 .00011455 00000+0 15064-3 0 9998 2 69049 41.4690 94.2105 0001495 308.5106 51.5598 15.58352000298716 SHENZHOU-23 (SZ-23) 1 69180U 26113A 26205.70067244 .00011455 00000+0 15064-3 0 9996 2 69180 41.4690 94.2105 0001495 308.5106 51.5598 15.58352000298183